• In Uzbekistan
  • List of Countries
  • For 7 days
  • Water Temperature
  • Weather Map
  • Weather Widgets
  • user-avatar
    Login

    Hourly Weather Sharan

    Today, 3 April, Friday

    Time Temperature Precipitation Wind Pressure Humidity
    00:00 +8°C° 0 mm 2 mps 587 mmHg 56%
    01:00 +7°C° 0 mm 2 mps 586 mmHg 57%
    02:00 +6°C° 0 mm 2 mps 586 mmHg 57%
    03:00 +7°C° 0 mm 1 mps 586 mmHg 58%
    04:00 +7°C° 0 mm 1 mps 585 mmHg 59%
    05:00 +6°C° 0 mm 1 mps 585 mmHg 60%
    06:00 +7°C° 0 mm 1 mps 586 mmHg 57%
    07:00 +8°C° 0 mm 1 mps 586 mmHg 53%
    08:00 +7°C° 0 mm 0 mps 587 mmHg 49%
    09:00 +10°C° 0 mm 1 mps 587 mmHg 44%
    10:00 +11°C° 0 mm 1 mps 588 mmHg 39%
    11:00 +12°C° 0 mm 1 mps 588 mmHg 33%
    12:00 +13°C° 0 mm 2 mps 588 mmHg 31%
    13:00 +14°C° 0 mm 2 mps 588 mmHg 28%
    14:00 +14°C° 0 mm 3 mps 589 mmHg 26%
    15:00 +16°C° 0 mm 3 mps 588 mmHg 25%
    16:00 +16°C° 0 mm 3 mps 588 mmHg 25%
    17:00 +16°C° 0 mm 3 mps 588 mmHg 24%
    18:00 +15°C° 0 mm 2 mps 588 mmHg 29%
    19:00 +14°C° 0 mm 2 mps 588 mmHg 34%
    20:00 +14°C° 0 mm 2 mps 588 mmHg 39%
    21:00 +13°C° 0 mm 2 mps 588 mmHg 42%
    22:00 +12°C° 0 mm 2 mps 588 mmHg 45%
    23:00 +12°C° 0 mm 2 mps 588 mmHg 47%

    Tomorrow, 4 April, Saturday

    Time Temperature Precipitation Wind Pressure Humidity
    00:00 +10°C° 0 mm 2 mps 588 mmHg 51%
    01:00 +9°C° 0 mm 2 mps 587 mmHg 55%
    02:00 +9°C° 0 mm 2 mps 587 mmHg 59%
    03:00 +9°C° 0 mm 1 mps 586 mmHg 60%
    04:00 +9°C° 0 mm 1 mps 586 mmHg 61%
    05:00 +9°C° 0 mm 1 mps 586 mmHg 62%
    06:00 +9°C° 0 mm 1 mps 586 mmHg 58%
    07:00 +10°C° 0 mm 1 mps 587 mmHg 54%
    08:00 +11°C° 0 mm 1 mps 588 mmHg 50%
    09:00 +12°C° 0 mm 1 mps 588 mmHg 46%
    10:00 +13°C° 0 mm 1 mps 588 mmHg 41%
    11:00 +14°C° 0 mm 2 mps 589 mmHg 36%
    12:00 +14°C° 0 mm 3 mps 589 mmHg 32%
    13:00 +16°C° 0 mm 3 mps 589 mmHg 29%
    14:00 +17°C° 0 mm 4 mps 589 mmHg 26%
    15:00 +15°C° 0.1 mm 5 mps 588 mmHg 33%
    16:00 +14°C° 0.1 mm 6 mps 587 mmHg 41%
    17:00 +12°C° 0.1 mm 7 mps 586 mmHg 48%
    18:00 +12°C° 0.2 mm 5 mps 586 mmHg 52%
    19:00 +11°C° 0.2 mm 3 mps 587 mmHg 55%
    20:00 +12°C° 0.2 mm 1 mps 587 mmHg 59%
    21:00 +11°C° 0.1 mm 1 mps 587 mmHg 61%
    22:00 +11°C° 0.1 mm 1 mps 587 mmHg 63%
    23:00 +11°C° 0.1 mm 1 mps 587 mmHg 65%

    Day after tomorrow, 5 April, Sunday

    Time Temperature Precipitation Wind Pressure Humidity
    00:00 +10°C° 0.1 mm 1 mps 587 mmHg 67%
    01:00 +10°C° 0.1 mm 1 mps 586 mmHg 70%
    02:00 +9°C° 0.1 mm 1 mps 586 mmHg 72%
    03:00 +9°C° 0 mm 1 mps 586 mmHg 74%
    04:00 +8°C° 0 mm 1 mps 585 mmHg 75%
    05:00 +8°C° 0 mm 1 mps 585 mmHg 76%
    06:00 +8°C° 0 mm 1 mps 586 mmHg 75%
    07:00 +8°C° 0 mm 2 mps 586 mmHg 73%
    08:00 +8°C° 0 mm 2 mps 587 mmHg 71%
    09:00 +9°C° 0 mm 2 mps 587 mmHg 65%
    10:00 +10°C° 0 mm 2 mps 587 mmHg 59%
    11:00 +12°C° 0 mm 1 mps 588 mmHg 54%
    12:00 +13°C° 0.1 mm 2 mps 588 mmHg 49%
    13:00 +14°C° 0.1 mm 2 mps 588 mmHg 44%
    14:00 +14°C° 0.1 mm 3 mps 588 mmHg 39%
    15:00 +14°C° 0 mm 3 mps 588 mmHg 38%
    16:00 +15°C° 0 mm 4 mps 588 mmHg 36%
    17:00 +15°C° 0 mm 4 mps 587 mmHg 34%
    18:00 +14°C° 0 mm 4 mps 588 mmHg 37%
    19:00 +14°C° 0 mm 3 mps 588 mmHg 40%
    20:00 +14°C° 0 mm 2 mps 588 mmHg 43%
    21:00 +13°C° 0 mm 2 mps 588 mmHg 45%
    22:00 +12°C° 0 mm 3 mps 588 mmHg 47%
    23:00 +11°C° 0 mm 3 mps 588 mmHg 49%

    6 April, Monday

    Time Temperature Precipitation Wind Pressure Humidity
    00:00 +12°C° 0 mm 2 mps 587 mmHg 51%
    01:00 +10°C° 0 mm 2 mps 587 mmHg 54%
    02:00 +10°C° 0 mm 2 mps 586 mmHg 56%
    03:00 +10°C° 0 mm 1 mps 586 mmHg 58%
    04:00 +10°C° 0 mm 1 mps 586 mmHg 60%
    05:00 +9°C° 0 mm 1 mps 586 mmHg 61%
    06:00 +8°C° 0.3 mm 2 mps 586 mmHg 67%
    07:00 +7°C° 0.3 mm 2 mps 586 mmHg 73%
    08:00 +7°C° 0.3 mm 3 mps 586 mmHg 79%
    09:00 +8°C° 0.2 mm 2 mps 586 mmHg 73%
    10:00 +10°C° 0.2 mm 1 mps 587 mmHg 66%
    11:00 +10°C° 0.2 mm 0 mps 587 mmHg 60%
    12:00 +12°C° 0.7 mm 1 mps 587 mmHg 53%
    13:00 +13°C° 0.7 mm 1 mps 587 mmHg 46%
    14:00 +14°C° 0.7 mm 1 mps 588 mmHg 39%
    15:00 +12°C° 2 mm 2 mps 586 mmHg 50%
    16:00 +9°C° 2 mm 2 mps 585 mmHg 62%
    17:00 +6°C° 2 mm 2 mps 584 mmHg 74%
    18:00 +7°C° 0 mm 2 mps 585 mmHg 72%
    19:00 +7°C° 0 mm 2 mps 585 mmHg 70%
    20:00 +8°C° 0 mm 2 mps 585 mmHg 68%
    21:00 +7°C° 0 mm 2 mps 585 mmHg 69%
    22:00 +8°C° 0 mm 1 mps 585 mmHg 70%
    23:00 +8°C° 0 mm 1 mps 585 mmHg 70%

    7 April, Tuesday

    Time Temperature Precipitation Wind Pressure Humidity
    00:00 +8°C° 0 mm 1 mps 584 mmHg 72%
    01:00 +8°C° 0 mm 1 mps 584 mmHg 74%
    02:00 +7°C° 0 mm 1 mps 584 mmHg 76%
    03:00 +7°C° 0 mm 1 mps 584 mmHg 77%
    04:00 +7°C° 0 mm 1 mps 584 mmHg 78%
    05:00 +7°C° 0 mm 1 mps 584 mmHg 78%
    06:00 +8°C° 0 mm 1 mps 584 mmHg 75%
    07:00 +8°C° 0 mm 1 mps 585 mmHg 71%
    08:00 +9°C° 0 mm 1 mps 586 mmHg 68%
    09:00 +10°C° 0 mm 2 mps 586 mmHg 60%
    10:00 +12°C° 0 mm 2 mps 587 mmHg 52%
    11:00 +12°C° 0 mm 3 mps 587 mmHg 44%
    12:00 +13°C° 0 mm 3 mps 587 mmHg 40%
    13:00 +15°C° 0 mm 2 mps 588 mmHg 36%
    14:00 +16°C° 0 mm 2 mps 588 mmHg 32%
    15:00 +17°C° 0 mm 2 mps 587 mmHg 31%
    16:00 +17°C° 0 mm 2 mps 587 mmHg 29%
    17:00 +18°C° 0 mm 1 mps 587 mmHg 28%
    18:00 +16°C° 0 mm 1 mps 587 mmHg 33%
    19:00 +16°C° 0 mm 1 mps 587 mmHg 38%
    20:00 +15°C° 0 mm 1 mps 587 mmHg 42%
    21:00 +14°C° 0 mm 2 mps 587 mmHg 46%
    22:00 +13°C° 0 mm 2 mps 587 mmHg 49%
    23:00 +13°C° 0 mm 2 mps 587 mmHg 53%

    8 April, Wednesday

    Time Temperature Precipitation Wind Pressure Humidity
    00:00 +12°C° 0 mm 2 mps 586 mmHg 56%
    01:00 +10°C° 0 mm 2 mps 586 mmHg 59%
    02:00 +10°C° 0 mm 2 mps 585 mmHg 61%
    03:00 +9°C° 0 mm 2 mps 585 mmHg 64%
    04:00 +10°C° 0 mm 1 mps 585 mmHg 67%
    05:00 +9°C° 0 mm 1 mps 585 mmHg 69%
    06:00 +10°C° 0 mm 1 mps 585 mmHg 65%
    07:00 +11°C° 0 mm 1 mps 586 mmHg 61%
    08:00 +11°C° 0 mm 1 mps 587 mmHg 57%
    09:00 +13°C° 0 mm 1 mps 587 mmHg 50%
    10:00 +14°C° 0 mm 1 mps 588 mmHg 43%
    11:00 +16°C° 0 mm 1 mps 588 mmHg 37%
    12:00 +18°C° 0 mm 1 mps 588 mmHg 33%
    13:00 +18°C° 0 mm 2 mps 588 mmHg 29%
    14:00 +19°C° 0 mm 2 mps 588 mmHg 25%
    15:00 +19°C° 0 mm 3 mps 588 mmHg 25%
    16:00 +19°C° 0 mm 3 mps 588 mmHg 26%
    17:00 +19°C° 0 mm 3 mps 587 mmHg 26%
    18:00 +18°C° 0 mm 3 mps 587 mmHg 31%
    19:00 +18°C° 0 mm 3 mps 587 mmHg 36%
    20:00 +17°C° 0 mm 3 mps 587 mmHg 41%
    21:00 +16°C° 0 mm 3 mps 587 mmHg 45%
    22:00 +14°C° 0 mm 4 mps 587 mmHg 48%
    23:00 +13°C° 0 mm 4 mps 587 mmHg 52%
    Show more